Home   Weather   Ibagué   Past weeks

Flag for Colombia Past Weather in Ibagué, Colombia — Yesterday and Last 2 Weeks

Now
77 °F

Scattered clouds.


Feels Like: 79 °F
Forecast: 53 / 74 °F
Wind: 6 mph from Southwest

Location: Pereira / Matecana

Current Time: Sep 29, 2016 at 1:50:32 PM

Latest Report: Sep 29, 2016 at 1:00 PM


Visibility: N/A

Pressure: 30.07 "Hg (25.96 "Hg at 1281m altitude)

Humidity: 69%

Dew Point: 66 °F

Location of IbaguéLocation

Past Weather in Ibagué — Graph

°F

Ibagué Temperature Yesterday

Maximum temperature yesterday: 84 °F (at 4:00 PM)
Minimum temperature yesterday: 66 °F (at 5:00 AM)
Average temperature yesterday: 74 °F

High & Low Weather Summary for the Past Weeks

 TemperatureHumidityPressure
High86 °F (Sep 16, 3:00 PM)100% (Sep 14, 10:00 PM)30.21 "Hg (Sep 14, 10:00 PM)
Low61 °F (Sep 15, 6:00 AM)43% (Sep 16, 3:00 PM)29.90 "Hg (Sep 26, 3:00 PM)
Average72 °F75%30.04 "Hg
* Reported Sep 14 12:00 PM — Sep 29 12:00 PM, Ibagué, Weather by CustomWeather, © 2016

Note: Actual official high and low records may vary slightly from our data, if they occured in-between our weather recording intervals... More about our weather records

Advertising

Ibagué Weather History for the Previous 24 Hours

Scroll right to see more
 ConditionsComfort  
Time TempWeatherWind HumidityBarometerVisibility
12:00 PM
Thu, Sep 29
79 °FPassing clouds.6 mph65%30.11 "HgN/A
11:00 AM75 °FScattered clouds.5 mph74%30.14 "HgN/A
10:00 AM70 °FFog.3 mph83%30.16 "Hg5 mi
9:00 AM68 °FDrizzle. Fog.3 mph88%30.15 "Hg4 mi
8:00 AM68 °FScattered clouds.5 mph88%30.12 "HgN/A
7:00 AM66 °FScattered clouds.3 mph88%30.09 "HgN/A
6:00 AM66 °FScattered clouds.7 mph88%30.07 "HgN/A
5:00 AM64 °FPassing clouds.8 mph94%30.06 "HgN/A
1:00 AM68 °FPassing clouds.8 mph83%30.07 "HgN/A
12:00 AM70 °FPassing clouds.6 mph78%30.08 "HgN/A
11:00 PM
Wed, Sep 28
70 °FPassing clouds.6 mph78%30.09 "HgN/A
10:00 PM70 °FPassing clouds.2 mph83%30.09 "HgN/A
9:00 PM72 °FPassing clouds.2 mph78%30.07 "HgN/A
8:00 PM73 °FPassing clouds.5 mph69%30.05 "HgN/A
7:00 PM75 °FThunderstorms. Passing clouds.7 mph65%30.02 "HgN/A
6:00 PM77 °FPassing clouds.7 mph65%29.99 "HgN/A
5:00 PM81 °FScattered showers. Scattered clouds.6 mph54%29.97 "HgN/A
4:00 PM84 °FPassing clouds.5 mph51%29.96 "HgN/A
3:00 PM82 °FScattered clouds.5 mph51%29.98 "HgN/A
2:00 PM82 °FScattered clouds.5 mph51%30.01 "HgN/A
1:00 PM81 °FScattered showers. Scattered clouds.5 mph51%30.06 "HgN/A
Weather by CustomWeather, © 2016

See weather overviewHow to use our weather pages